Showing default

SKYSAT 2, 40072

Orbit data source: Space-Track

SKYSAT 2, 40072 is a payload satellite owned by Skybox (US) in SSO that was launched on Tue, 08 Jul 2014 UTC via a SOYUZ-2-1B launch vehicle from the Tyuratam Missile And Space Complex (TTMTR). Payload-class satellites include a variety of spacecraft equipped with specific instruments for various scientific and technological missions. These include communications satellites like Starlink; space stations such as the ISS; scientific satellites like the Hubble; Earth observation satellites from companies like Planet Labs, Umbra, and HawkEye 360; GPS; miniature CubeSats for education and research; and military/defense satellites.

Loading next visibility...
Identifier
40072, 2014-037D
Orbit
SSO
Country
Flag of USUS
Related business
Manufacturer
Skybox
Mission
Operational Commercial Imaging
Bus & Motor
SKYSAT, Unknown motor
Mass
82 kg wet, 82 kg dry
Launch date (UTC)
2014-07-08 (11 years ago)
Launch vehicle
SOYUZ-2-1B
Launch site
Tyuratam Missile And Space Complex (TTMTR)
Object type
Payload
Rocket body
Debris
Shape & HBR
Box, 0.4 m
Radar Cross Section
0.800 m², Medium (>0.1 m² and < 1m²)

Expand to show TLE details & history
Last TLE update: 17 hours ago

TLE from 17 hours ago
0 SKYSAT 2
1 40072U 14037D   25260.89606921  .00001589  00000-0  18500-3 0  9994
2 40072  98.3462 200.1769 0007321  82.5288 277.6758 14.86801840605483
Epoch: 2025-09-17T21:30Z
TLE epoch observation values (Epoch: 2025-09-17T21:30:20.379Z)
Latitude
-0.00003°
Longitude
-119.47345°
Altitude
610.273 km
Speed
7.554 km/s
True Right ascension
13h 20m 42s
True Declination
0° 00' 00"
Sunlit
Object was in daylight at epoch
Visualization orbit readout
Latitude
Unknown
Longitude
Unknown
Altitude
Unknown
Speed
Unknown
Apparent Right ascension
Unknown
Apparent Declination
Unknown
Sunlit
N/A
Visualization observer readout
Local Sidereal Time
07:21:36
Azimuth
Unknown
Elevation
Unknown
Doppler factor
Unknown
Orbital elements
Apogee altitude
610.101 km
Perigee altitude
599.876 km
Semi-major axis
6,983.125 km
Eccentricity
0.00073
Inclination
98.3462°
RAAN
200.1769°
Arg. of periapsis
82.5288°
True anomaly
277.59265°
Mean anomaly
277.6758°
Eccentric anomaly
277.63423°
Mean motion
3.71936 °/min
Orbital period
96.79 mins
BSTAR
0.000185
Loading maneuver chart data...
Computing Atmospheric mass density...
Loading historical data...
Loading historical data...
Loading historical data...
Loading historical data...
Loading historical data...
Loading historical data...
Loading historical data...

Documentation

Showing up to 5 results
|